Jordan, MT

4:17 PM MDT on July 25, 2017 (GMT -0600)
Jordan

Weather History for KJDN - July, 2013

Change the Weather History Date:

Saturday, July 13, 2013

  Actual Average Record
Temperature  
Mean Temperature 72 °F 70 °F  
Max Temperature 85 °F 85 °F 102 °F (2002)
Min Temperature 58 °F 54 °F 41 °F (1971)
Degree Days  
Heating Degree Days 0 1  
Month to date heating degree days 0 14  
Since 1 June heating degree days 95 139  
Since 1 July heating degree days 0 14  
Cooling Degree Days 7 6  
Month to date cooling degree days 106 59  
Year to date cooling degree days 166 113  
Since 1 June cooling degree days 154 107  
Growing Degree Days 22 (Base 50)    
Moisture  
Dew Point 53 °F    
Average Humidity 63    
Maximum Humidity 90    
Minimum Humidity 36    
Precipitation  
Precipitation 0.03 in 0.06 in 0.83 in (1993)
Month to date precipitation 0.91 1.05  
Year to date precipitation 11.93 7.91  
Snow  
Snow 0.00 in - - ()
Month to date snowfall 0.0  
Since 1 June snowfall 0.0  
Since 1 July snowfall 0.0  
Snow Depth 0.00 in    
Sea Level Pressure  
Sea Level Pressure 29.95 in    
Wind  
Wind Speed 11 mph (North)    
Max Wind Speed 29 mph    
Max Gust Speed 36 mph    
T = Trace of Precipitation, MM = Missing Value Source: NWS Daily Summary

Daily Weather History Graph

Daily Weather History Graph

Search for Another Location

Airport or City:

Trip Planner

Search our weather history database for the weather conditions in past years. The results will help you decide how hot, cold, wet, or windy it might be!

Date:

Astronomy

Jul. 13, 2013 Rise Set
Actual Time 5:24 AM MDT 9:01 PM MDT
Civil Twilight 4:46 AM MDT 9:40 PM MDT
Nautical Twilight 3:54 AM MDT 10:31 PM MDT
Astronomical Twilight 2:43 AM MDT 11:41 PM MDT
Moon 11:09 AM MDT (7/13) 11:15 PM MDT (7/13)
Length of Visible Light 16h 53m
Length of Day
15h 36m
Waxing Crescent, 26% of the Moon is Illuminated
Jul 13
Waxing Crescent
Jul 15
First Quarter
Jul 22
Full
Jul 29
Last Quarter
Aug 6
New

Hourly Weather History & Observations

Time (MDT) Temp. Heat Index Dew Point Humidity Pressure Visibility Wind Dir Wind Speed Gust Speed Precip Events Conditions
12:48 AM 66.9 °F - 57.9 °F 73% 29.91 in - NW 3.5 mph - N/A   Unknown
1:48 AM 64.9 °F - 55.9 °F 73% 29.84 in - ENE 8.1 mph - 0.04 in   Unknown
2:48 AM 64.9 °F - 55.9 °F 73% 29.84 in - NNE 5.8 mph - N/A   Unknown
3:48 AM 66.0 °F - 54.0 °F 65% 29.83 in - Calm Calm - 0.01 in   Unknown
4:48 AM 63.0 °F - 55.9 °F 78% 29.85 in - NE 5.8 mph - N/A   Unknown
5:48 AM 61.0 °F - 57.0 °F 87% 29.86 in - SE 6.9 mph - N/A   Unknown
6:48 AM 63.0 °F - 55.9 °F 78% 29.85 in - East 3.5 mph - N/A   Unknown
7:48 AM 66.0 °F - 57.0 °F 73% 29.86 in - East 3.5 mph - N/A   Unknown
8:48 AM 73.0 °F - 55.0 °F 53% 29.86 in - SE 5.8 mph - N/A   Unknown
9:48 AM 75.0 °F - 55.9 °F 51% 29.87 in - West 6.9 mph - N/A   Unknown
10:48 AM 78.1 °F - 55.9 °F 46% 29.87 in - WNW 9.2 mph - N/A   Unknown
11:48 AM 80.1 °F 80.4 °F 57.0 °F 45% 29.88 in - NW 13.8 mph - N/A   Unknown
12:48 PM 82.9 °F 82.1 °F 55.9 °F 39% 29.90 in - NNW 16.1 mph 21.9 mph N/A   Unknown
1:48 PM 82.9 °F 82.0 °F 55.0 °F 38% 29.92 in - NW 17.3 mph 24.2 mph N/A   Unknown
2:48 PM 82.0 °F 81.3 °F 54.0 °F 38% 29.94 in - NNW 25.3 mph 32.2 mph N/A   Unknown
3:48 PM 80.1 °F - 52.0 °F 38% 29.98 in - North 25.3 mph 32.2 mph N/A   Unknown
4:48 PM 79.0 °F - 52.0 °F 39% 30.01 in - North 25.3 mph 33.4 mph N/A   Unknown
5:48 PM 75.9 °F - 48.9 °F 38% 30.03 in - North 19.6 mph 28.8 mph N/A   Unknown
6:48 PM 75.9 °F - 46.9 °F 36% 30.04 in - North 20.7 mph 26.5 mph N/A   Unknown
7:48 PM 73.0 °F - 46.0 °F 38% 30.10 in - North 9.2 mph - N/A   Unknown
8:48 PM 70.0 °F - 48.9 °F 47% 30.11 in - NNE 5.8 mph - N/A   Unknown
9:48 PM 66.0 °F - 46.0 °F 48% 30.15 in - NNE 8.1 mph - N/A   Unknown
10:48 PM 63.0 °F - 46.0 °F 54% 30.16 in - NNE 6.9 mph - N/A   Unknown
11:48 PM 62.1 °F - 48.9 °F 62% 30.18 in - East 6.9 mph - N/A   Unknown